Regional Weather Roundup
Issued by NWS

Home | Current Version | Previous Version | Text Only | Print | Product List | Glossary Off
Versions: 1 2 3 4 5 6 7 8 9 10 11 12 13 14 15 16 17 18 19 20 21 22 23 24 25 26 27 28 29 30 31 32 33 34 35 36 37 38 39 40 41 42 43 44 45 46 47 48 49 50

000
ASUS45 KABQ 221701
RWRNM
NEW MEXICO REGIONAL WEATHER ROUNDUP
NATIONAL WEATHER SERVICE ALBUQUERQUE NM
1100 AM MDT FRI MAY 22 2015

NOTE: "FAIR" MEANS FEW OR NO CLOUDS BELOW 12,000 FEET AGL WITH NO
       SIGNIFICANT WEATHER OR OBSTRUCTIONS TO VISION.

      THIS PRODUCT IS RELEASED AS TWO VERSIONS.  ONE VERSION NEAR
      THE TOP OF THE HOUR CONTAINING PRELIMINARY DATA FROM ALBUQUERQUE
      AND OTHER STATIONS.  A FINAL VERSION WITH ADDITIONAL DATA IS
      ISSUED ABOUT 10 MINUTES AFTER THE HOUR.

NMZ501-503-504-510>518-221800-
NORTHWEST PLATEAU/NORTHCENTRAL MOUNTAINS

CITY           SKY/WX    TMP DP  RH WIND       PRES   REMARKS
FARMINGTON     SUNNY     63  37  38 NE9       30.01F
SANTA FE       PTSUNNY   53  42  66 MISG      30.13S
TAOS           CLOUDY    48  36  61 W6        30.16F
ANGEL FIRE     PTSUNNY   46  37  72 W8        30.19S

$$
NMZ402-403-502-505>509-221800-
WESTCENTRAL MOUNTAINS/SOUTHWEST MOUNTAINS

CITY           SKY/WX    TMP DP  RH WIND       PRES   REMARKS
GALLUP         CLOUDY    60  30  32 S13G20    30.05F
GRANTS         MOSUNNY   58  43  58 SE12G20   30.11F
SILVER CITY      N/A     66  27  22 SE13G23   30.11S

$$
NMZ407-409-411-412-221800-
SOUTHERN DESERTS

CITY           SKY/WX    TMP DP  RH WIND       PRES   REMARKS
LORDSBURG      FAIR      72  23  16 S16G24    30.02F
DEMING         SUNNY     72  34  24 VRB7      30.05F
HOLLOMAN AFB   MOSUNNY   65  53  65 CALM      30.07F
ALAMOGORDO     SUNNY     66  48  52 S9        30.09F
T OR C         SUNNY     63  45  51 S7        30.07F

$$
NMZ519>523-221800-
CENTRAL VALLEYS/CENTRAL HIGHLANDS

CITY           SKY/WX    TMP DP  RH WIND       PRES   REMARKS
ALBUQUERQUE    PTSUNNY   59  45  59 SW9       30.11F
MORIARTY ARPT  PTSUNNY   54  43  68 S10G16    30.16S
CLINES CORNERS MOSUNNY   52  43  71 SW13      30.15S
BELEN          FAIR      61  46  57 SE6       30.09F
SOCORRO        NOT AVBL

$$
NMZ524>526-539-540-221800-
SOUTHCENTRAL MOUNTAINS

CITY           SKY/WX    TMP DP  RH WIND       PRES   REMARKS
RUIDOSO        NOT AVBL

$$
NMZ527>531-221800-
NORTHEAST HIGHLANDS/NORTHEAST PLAINS

CITY           SKY/WX    TMP DP  RH WIND       PRES   REMARKS
LAS VEGAS      SUNNY     54  44  69 S15       30.13S
RATON          MOSUNNY   53  45  74 SE5       30.09F
CLAYTON        PTSUNNY   55  46  71 SW21G29   30.08F

$$
NMZ532>537-221800-
EASTCENTRAL PLAINS

CITY           SKY/WX    TMP DP  RH WIND       PRES   REMARKS
TUCUMCARI      CLOUDY    59  50  72 S12       30.10
CANNON AFB     NOT AVBL
CLOVIS AIRPORT CLOUDY    55  50  82 S7        30.15S

$$
NMZ028-029-538-221800-
SOUTHEAST PLAINS

CITY           SKY/WX    TMP DP  RH WIND       PRES   REMARKS
ROSWELL        CLOUDY    60  52  74 SE10      30.10F
ARTESIA        CLOUDY    59  55  88 VRB5      30.12F
CARLSBAD       CLOUDY    61  54  77 SE3       30.10F
HOBBS          CLOUDY    57  57 100 CALM      30.14S


$$



USA.gov is the U.S. government's official web portal to all federal, state and local government web resources and services.